Warning: Javascript must be enabled to use all the features on this page!


Page Loading - Please Wait...

Click to hideNews Bulletins

Peak Streamflow for Idaho

Click to hide state-specific text

USGS 13302500 SALMON RIVER AT SALMON ID

Lemhi County, Idaho
Hydrologic Unit Code 17060203
Latitude  45°11'01", Longitude 113°53'43" NAD83
Drainage area 3,737  square miles
Gage datum 3,911.14 feet above NGVD29
Output formats
Table
Graph
Tab-separated file
peakfq (watstore) format
Reselect output format
Water
Year
Date Gage
Height
(feet)
Stream-
flow
(cfs)
1912 1912-06-10   12,9001
1913 1913-06-01   12,8001
1914 1914-06-04   8,4201
1915 1915-06-02   3,7801
1916 1916-06-19   11,6001
1920 1920-06-16   6,8101
1921 1921-06-12   16,4001
1922 1922-06-15 8.90 14,700
1923 1923-06-13   10,2001
1924 1924-05-19   4,3701
1925 1925-05-30   9,3801
1926 1926-05-05   3,3001
1927 1927-06-13   10,8001
1928 1928-05-27   11,8001
1929 1929-06-17   5,8401
1930 1930-06-12 4.862 6,030
1931 1931-06-03 3.92 3,6901
1932 1932-06-17 6.222 9,6401
1933 1933-06-14 6.422 10,200
1934 1934-05-09 4.34 4,060
1935 1935-06-09 5.31 6,460
1936 1936-06-03 6.242 9,110
1937 1937-05-28 4.292 3,890
1938 1938-06-08 6.53 9,600
1939 1939-05-19 4.31 3,890
1940 1940-05-27 5.25 5,850
1941 1941-05-27 5.27 5,740
1942 1942-06-09 6.87 10,600
1943 1943-05-31 7.18 10,700
1944 1944-06-27 5.50 5,960
1945 1945-06-24 5.55 5,930
1946 1946-06-06 5.87 6,710
1947 1947-05-10 7.05 10,100
1948 1948-06-04 7.32 10,900
1949 1949-05-17 6.152 7,590
1950 1950-06-22 6.592 8,930
1951 1951-05-29 7.38 11,400
1952 1952-06-07 6.70 9,720
1953 1953-06-19 6.92 9,800
1954 1954-06-27 6.89 9,710
1955 1955-06-13 6.33 8,060
1956 1956-05-25 8.252 16,500
1957 1957-06-06 7.232 14,300
1958 1958-05-25 7.24 12,900
1959 1959-06-15 5.94 8,460
1960 1960-06-05 5.24 6,840
1961 1961-06-03 5.32 6,350
1962 1962-06-21 5.612 7,610
1963 1963-06-21 6.352 10,500
1964 1964-06-08 6.21 9,830
1965 1965-06-13 7.89 15,300
1966 1966-05-30 4.46 4,360
1967 1967-06-22 7.06 11,500
1968 1968-06-07 5.50 6,530
1969 1969-05-27 6.44 9,720
1970 1970-06-08 6.75 11,600
1971 1971-06-27 6.94 12,500
1972 1972-06-08 7.77 16,200
1973 1973-05-20 4.632 5,420
1974 1974-06-17 8.67 17,700
1975 1975-06-08 6.50 10,200
1976 1976-05-29 6.26 9,810
1977 1977-06-11 3.51 3,360
1978 1978-06-11 6.29 9,690
1979 1979-05-27 5.06 6,870
1980 1980-05-24 5.55 7,730
1981 1981-06-09 6.51 10,200
1982 1982-06-21 7.56 13,700
1983 1983-05-31 7.29 13,200
1984 1984-06-01 6.902 11,200
1985 1985-05-27 4.842 6,500
1986 1986-06-01 8.11 15,000
1987 1987-05-18 3.34 3,610
1988 1988-06-06 3.87 4,750
1989 1989-05-11 4.18 5,230
1990 1990-06-11 3.81 4,260
1991 1991-06-12 4.97 7,100
1992 1992-05-10 3.10 2,970
1993 1993-05-21 5.67 8,690
1994 1994-05-13 3.26 3,040
1995 1995-06-06 6.55 10,900
1996 1996-06-10 8.01 16,000
1997 1997-06-11   15,9001
1998 1998-06-27 5.50 7,430
1999 1999-06-19   11,9001
2000 2000-05-25 4.902 6,120
2001 2001-05-17 3.612 3,300
2002 2002-06-02 5.52 7,540
2003 2003-05-31 7.23 13,000
2004 2004-06-07 3.90 3,830
2005 2005-05-21 4.70 5,490
2006 2006-05-21 7.76 14,900
2007 2007-05-14 4.69 5,270
2008 2008-05-21 6.36 9,630
2009 2009-06-06 6.83 11,500
2010 2010-06-05 7.19 12,800
2011 2011-06-24 7.28 13,100
2012 2012-04-27 7.16 12,700
2013 2013-05-15 4.83 5,700
2014 2014-05-29 6.20 9,450
2015 2015-06-02 4.57 5,100
2016 2016-06-08 5.44 6,940
2017 2017-06-06 9.15 17,100
2018 2018-05-26 6.76 9,730
2019 2019-06-07 6.12 8,080
2020 2020-06-01 5.62 6,900
?
  Peak Gage-Height Qualification Codes.
?
  Peak Streamflow Qualification Codes.